Location: Paris
(48.6709°N, 2.3750°E)
Time: 00:50:23
(UTC+02:00)

LO-87 - Pass Details

Date: 05 July 2022
Orbit: 450 x 466 km, 97.4° (Epoch: 18 August)

Event Time Altitude Azimuth Distance (km) Brightness Sun altitude
Exits shadow 01:23:00 54° 180° (S) 569 ? -18.2°
Maximum altitude 01:23:42 81° 256° (WSW) 476 ? -18.2°
Drops below altitude 10° 01:27:12 10° 345° (NNW) 1,632 ? -18.3°
Sets 01:29:16 0° 347° (NNW) 2,517 ? -18.3°
